Location: Newark
(7.0858°N, 171.3717°E)
Time: 15:21:06
(UTC+00:00)

Vanguard 3 - Pass Details

Date: 27 November 2020
Orbit: 508 x 3262 km, 33.4° (Epoch: 14 January)

Event Time Altitude Azimuth Distance (km) Brightness Sun altitude
Rises 06:25:54 0° 239° (WSW) 4,081 13.1 -3.4°
Reaches altitude 10° 06:29:20 10° 241° (WSW) 2,718 11.7 -4.2°
Maximum altitude 06:35:18 69° 324° (NW) 725 7.0 -5.6°
Drops below altitude 10° 06:39:16 10° 48° (NE) 1,826 8.4 -6.5°
Enters shadow 06:39:52 - 49° (NE) 2,073 8.7 -6.6°
